| time (UTC) | temp C | wind direction | speed KPH | gust KPH | rain 1hr cm | rain 24hr cm | rain mn cm | humidity % | barometer mb |
| 20260504070321 | 7 | 129 | 0.0 | 0.0 | 0.00 | 0.00 | 0.00 | 95 | 1017.4 |
| 20260504060241 | 7 | 129 | 0.0 | 0.0 | 0.00 | 0.00 | 0.00 | 93 | 1018.1 |
| 20260504050709 | 7 | 130 | 0.0 | 1.6 | 0.00 | 0.00 | 0.00 | 90 | 1018.8 |
| 20260504050206 | 7 | 130 | 0.0 | 0.0 | 0.00 | 0.00 | 0.00 | 89 | 1019.1 |
| 20260504045703 | 7 | 130 | 0.0 | 1.6 | 0.00 | 0.00 | 0.00 | 90 | 1018.9 |
| 20260504045203 | 7 | 130 | 0.0 | 1.6 | 0.00 | 0.00 | 0.00 | 88 | 1019.0 |
| 20260504044702 | 7 | 130 | 0.0 | 0.0 | 0.00 | 0.00 | 0.00 | 86 | 1018.8 |
| 20260504044159 | 7 | 130 | 0.0 | 0.0 | 0.00 | 0.00 | 0.00 | 85 | 1018.6 |
| 20260504043655 | 7 | 130 | 0.0 | 1.6 | 0.00 | 0.00 | 0.00 | 83 | 1018.5 |
| 20260504043152 | 8 | 130 | 1.6 | 1.6 | 0.00 | 0.00 | 0.00 | 84 | 1018.4 |
| 20260504042650 | 8 | 130 | 3.2 | 3.2 | 0.00 | 0.00 | 0.00 | 83 | 1018.5 |
| 20260504042146 | 7 | 135 | 0.0 | 0.0 | 0.00 | 0.00 | 0.00 | 81 | 1018.4 |
| 20260504041642 | 7 | 135 | 0.0 | 0.0 | 0.00 | 0.00 | 0.00 | 82 | 1018.2 |
| 20260504041138 | 7 | 135 | 0.0 | 0.0 | 0.00 | 0.00 | 0.00 | 82 | 1018.3 |
| 20260504040636 | 7 | 135 | 0.0 | 0.0 | 0.00 | 0.00 | 0.00 | 82 | 1018.3 |
| 20260504040132 | 7 | 135 | 0.0 | 0.0 | 0.00 | 0.00 | 0.00 | 84 | 1018.2 |
| 20260504035629 | 7 | 135 | 0.0 | 0.0 | 0.00 | 0.00 | 0.00 | 83 | 1018.3 |
| 20260504035126 | 7 | 135 | 0.0 | 0.0 | 0.00 | 0.00 | 0.00 | 83 | 1018.3 |
| 20260504034624 | 7 | 135 | 0.0 | 0.0 | 0.00 | 0.00 | 0.00 | 81 | 1018.4 |
| 20260504034120 | 7 | 135 | 0.0 | 0.0 | 0.00 | 0.00 | 0.00 | 80 | 1018.4 |
| 20260504033618 | 7 | 135 | 0.0 | 0.0 | 0.00 | 0.00 | 0.00 | 84 | 1018.3 |
| 20260504033115 | 7 | 135 | 0.0 | 0.0 | 0.00 | 0.00 | 0.00 | 82 | 1018.4 |
| 20260504032612 | 7 | 135 | 0.0 | 0.0 | 0.00 | 0.00 | 0.00 | 82 | 1018.3 |
| 20260504032109 | 7 | 135 | 0.0 | 0.0 | 0.00 | 0.00 | 0.00 | 82 | 1018.3 |
| 20260504031606 | 7 | 135 | 0.0 | 0.0 | 0.00 | 0.00 | 0.00 | 83 | 1018.2 |
| 20260504031102 | 7 | 135 | 0.0 | 0.0 | 0.00 | 0.00 | 0.00 | 82 | 1018.2 |
| 20260504030559 | 7 | 135 | 0.0 | 0.0 | 0.00 | 0.00 | 0.00 | 82 | 1018.2 |
| 20260504030055 | 7 | 135 | 0.0 | 0.0 | 0.00 | 0.00 | 0.00 | 83 | 1018.3 |
| 20260504025553 | 7 | 135 | 0.0 | 0.0 | 0.00 | 0.00 | 0.00 | 82 | 1018.3 |
| 20260504025049 | 7 | 135 | 0.0 | 0.0 | 0.00 | 0.00 | 0.00 | 84 | 1018.2 |
| 20260504024547 | 7 | 135 | 0.0 | 0.0 | 0.00 | 0.00 | 0.00 | 82 | 1018.3 |
| 20260504024043 | 7 | 135 | 0.0 | 0.0 | 0.00 | 0.00 | 0.00 | 83 | 1018.1 |
| 20260504023540 | 7 | 135 | 0.0 | 0.0 | 0.00 | 0.00 | 0.00 | 83 | 1018.0 |
| 20260504023036 | 7 | 135 | 0.0 | 0.0 | 0.00 | 0.00 | 0.00 | 83 | 1018.3 |
| 20260504022532 | 7 | 135 | 0.0 | 0.0 | 0.00 | 0.00 | 0.00 | 83 | 1018.2 |
| 20260504022029 | 7 | 135 | 0.0 | 0.0 | 0.00 | 0.00 | 0.00 | 82 | 1018.2 |
| 20260504021526 | 7 | 135 | 0.0 | 0.0 | 0.00 | 0.00 | 0.00 | 80 | 1018.1 |
| 20260504021023 | 7 | 135 | 0.0 | 0.0 | 0.00 | 0.00 | 0.00 | 81 | 1018.1 |
| 20260504020520 | 7 | 135 | 0.0 | 0.0 | 0.00 | 0.00 | 0.00 | 82 | 1018.0 |
| 20260504020016 | 7 | 135 | 0.0 | 0.0 | 0.00 | 0.00 | 0.00 | 81 | 1018.2 |
| 20260504015513 | 7 | 135 | 0.0 | 0.0 | 0.00 | 0.00 | 0.00 | 80 | 1018.3 |
| 20260504015009 | 8 | 135 | 0.0 | 0.0 | 0.00 | 0.00 | 0.00 | 81 | 1018.2 |
| 20260504014505 | 8 | 135 | 0.0 | 0.0 | 0.00 | 0.00 | 0.00 | 78 | 1018.1 |
| 20260504014002 | 8 | 135 | 0.0 | 0.0 | 0.00 | 0.00 | 0.00 | 76 | 1018.2 |
| 20260504013500 | 8 | 135 | 0.0 | 0.0 | 0.00 | 0.00 | 0.00 | 77 | 1017.9 |
| 20260504012955 | 8 | 135 | 0.0 | 0.0 | 0.00 | 0.00 | 0.00 | 77 | 1018.0 |
| 20260504012454 | 8 | 135 | 0.0 | 0.0 | 0.00 | 0.00 | 0.00 | 75 | 1017.7 |
| 20260504011952 | 9 | 135 | 0.0 | 0.0 | 0.00 | 0.00 | 0.00 | 72 | 1017.7 |
| 20260504011448 | 9 | 135 | 0.0 | 0.0 | 0.00 | 0.00 | 0.00 | 74 | 1017.6 |
| 20260504010944 | 9 | 135 | 0.0 | 0.0 | 0.00 | 0.00 | 0.00 | 72 | 1017.5 |
| 20260504010440 | 10 | 135 | 0.0 | 0.0 | 0.00 | 0.00 | 0.00 | 70 | 1017.6 |
| 20260504005936 | 10 | 135 | 0.0 | 0.0 | 0.00 | 0.00 | 0.00 | 69 | 1017.9 |
| 20260504005433 | 10 | 135 | 0.0 | 0.0 | 0.00 | 0.00 | 0.00 | 68 | 1017.8 |
| 20260504004930 | 10 | 135 | 0.0 | 0.0 | 0.00 | 0.00 | 0.00 | 71 | 1017.5 |
| 20260504004428 | 10 | 135 | 0.0 | 0.0 | 0.00 | 0.00 | 0.00 | 70 | 1017.4 |
| 20260504003925 | 11 | 135 | 0.0 | 0.0 | 0.00 | 0.00 | 0.00 | 73 | 1017.4 |
| 20260504003421 | 11 | 135 | 0.0 | 0.0 | 0.00 | 0.00 | 0.00 | 71 | 1017.3 |
| 20260504002918 | 11 | 135 | 0.0 | 0.0 | 0.00 | 0.00 | 0.00 | 71 | 1017.3 |
| 20260504002415 | 11 | 135 | 0.0 | 0.0 | 0.00 | 0.00 | 0.00 | 67 | 1017.2 |
| 20260504001913 | 12 | 135 | 0.0 | 0.0 | 0.00 | 0.00 | 0.00 | 64 | 1017.2 |
| 20260504001410 | 12 | 135 | 0.0 | 0.0 | 0.00 | 0.00 | 0.00 | 63 | 1017.2 |
| 20260504000906 | 12 | 136 | 0.0 | 0.0 | 0.00 | 0.00 | 0.00 | 63 | 1017.2 |
| 20260504000403 | 12 | 136 | 0.0 | 0.0 | 0.00 | 0.00 | 0.00 | 64 | 1017.3 |
| 20260503235901 | 13 | 136 | 0.0 | 0.0 | 0.00 | 0.00 | 0.00 | 59 | 1017.3 |
| 20260503235359 | 13 | 136 | 0.0 | 1.6 | 0.00 | 0.00 | 0.00 | 61 | 1017.2 |
| 20260503234856 | 13 | 136 | 0.0 | 0.0 | 0.00 | 0.00 | 0.00 | 54 | 1017.2 |
| 20260503234353 | 13 | 136 | 0.0 | 0.0 | 0.00 | 0.00 | 0.00 | 53 | 1017.4 |
| 20260503233851 | 13 | 136 | 0.0 | 0.0 | 0.00 | 0.00 | 0.00 | 55 | 1017.5 |
| 20260503233347 | 14 | 136 | 0.0 | 1.6 | 0.00 | 0.00 | 0.00 | 55 | 1017.6 |
| 20260503232843 | 14 | 136 | 0.0 | 3.2 | 0.00 | 0.00 | 0.00 | 44 | 1017.3 |
| 20260503232341 | 14 | 136 | 0.0 | 0.0 | 0.00 | 0.00 | 0.00 | 49 | 1017.2 |
| 20260503231839 | 14 | 136 | 0.0 | 0.0 | 0.00 | 0.00 | 0.00 | 55 | 1017.3 |
| 20260503231336 | 14 | 136 | 0.0 | 0.0 | 0.00 | 0.00 | 0.00 | 50 | 1017.6 |
| 20260503230832 | 15 | 136 | 1.6 | 3.2 | 0.00 | 0.00 | 0.00 | 55 | 1017.5 |
| 20260503230329 | 15 | 137 | 0.0 | 1.6 | 0.00 | 0.00 | 0.00 | 42 | 1017.4 |
| 20260503225826 | 15 | 137 | 1.6 | 3.2 | 0.00 | 0.00 | 0.00 | 35 | 1017.5 |
| 20260503225322 | 16 | 146 | 0.0 | 1.6 | 0.00 | 0.00 | 0.00 | 35 | 1017.5 |
| 20260503224818 | 16 | 146 | 3.2 | 3.2 | 0.00 | 0.00 | 0.00 | 32 | 1017.6 |
| 20260503224316 | 16 | 174 | 1.6 | 3.2 | 0.00 | 0.00 | 0.00 | 34 | 1017.4 |
| 20260503223814 | 16 | 129 | 1.6 | 3.2 | 0.00 | 0.00 | 0.00 | 37 | 1017.5 |
| 20260503223311 | 16 | 129 | 0.0 | 0.0 | 0.00 | 0.00 | 0.00 | 32 | 1017.7 |
| 20260503222806 | 16 | 129 | 1.6 | 1.6 | 0.00 | 0.00 | 0.00 | 40 | 1017.7 |
| 20260503222305 | 16 | 129 | 0.0 | 1.6 | 0.00 | 0.00 | 0.00 | 41 | 1017.8 |
| 20260503221803 | 16 | 129 | 1.6 | 1.6 | 0.00 | 0.00 | 0.00 | 33 | 1017.7 |
| 20260503221301 | 16 | 129 | 3.2 | 4.8 | 0.00 | 0.00 | 0.00 | 32 | 1017.9 |
| 20260503220757 | 16 | 129 | 0.0 | 1.6 | 0.00 | 0.00 | 0.00 | 32 | 1017.8 |
| 20260503220254 | 16 | 129 | 3.2 | 4.8 | 0.00 | 0.00 | 0.00 | 29 | 1017.8 |
| 20260503215751 | 17 | 150 | 0.0 | 1.6 | 0.00 | 0.00 | 0.00 | 33 | 1017.7 |
| 20260503215248 | 17 | 76 | 1.6 | 4.8 | 0.00 | 0.00 | 0.00 | 31 | 1017.6 |
| 20260503214746 | 16 | 75 | 1.6 | 6.4 | 0.00 | 0.00 | 0.00 | 29 | 1017.7 |
| 20260503214242 | 17 | 223 | 3.2 | 3.2 | 0.00 | 0.00 | 0.00 | 30 | 1017.7 |
| 20260503213740 | 17 | 222 | 1.6 | 3.2 | 0.00 | 0.00 | 0.00 | 29 | 1017.8 |
| 20260503213238 | 18 | 223 | 3.2 | 4.8 | 0.00 | 0.00 | 0.00 | 29 | 1017.9 |
| 20260503212734 | 17 | 332 | 0.0 | 4.8 | 0.00 | 0.00 | 0.00 | 33 | 1017.8 |
| 20260503212232 | 17 | 338 | 1.6 | 3.2 | 0.00 | 0.00 | 0.00 | 36 | 1017.8 |
| 20260503211729 | 17 | 124 | 1.6 | 1.6 | 0.00 | 0.00 | 0.00 | 31 | 1017.9 |
| 20260503211225 | 17 | 124 | 0.0 | 3.2 | 0.00 | 0.00 | 0.00 | 34 | 1018.0 |
| 20260503210721 | 17 | 231 | 3.2 | 6.4 | 0.00 | 0.00 | 0.00 | 29 | 1017.9 |
| 20260503210219 | 17 | 51 | 6.4 | 9.7 | 0.00 | 0.00 | 0.00 | 31 | 1018.1 |
| 20260503205714 | 17 | 36 | 6.4 | 6.4 | 0.00 | 0.00 | 0.00 | 30 | 1018.0 |
| 20260503205210 | 17 | 37 | 6.4 | 9.7 | 0.00 | 0.00 | 0.00 | 31 | 1018.2 |
| 20260503204707 | 17 | 254 | 3.2 | 6.4 | 0.00 | 0.00 | 0.00 | 32 | 1018.2 |
| 20260503204205 | 17 | 84 | 1.6 | 1.6 | 0.00 | 0.00 | 0.00 | 32 | 1018.4 |
| 20260503203701 | 17 | 261 | 3.2 | 3.2 | 0.00 | 0.00 | 0.00 | 31 | 1018.3 |
| 20260503203159 | 16 | 196 | 0.0 | 0.0 | 0.00 | 0.00 | 0.00 | 29 | 1018.3 |
| 20260503202656 | 16 | 79 | 1.6 | 4.8 | 0.00 | 0.00 | 0.00 | 28 | 1018.6 |
| 20260503202154 | 16 | 261 | 6.4 | 6.4 | 0.00 | 0.00 | 0.00 | 30 | 1018.7 |
| 20260503201652 | 16 | 204 | 4.8 | 6.4 | 0.00 | 0.00 | 0.00 | 31 | 1019.0 |
| 20260503201149 | 16 | 105 | 1.6 | 11.3 | 0.00 | 0.00 | 0.00 | 36 | 1018.7 |
| 20260503200645 | 17 | 34 | 3.2 | 4.8 | 0.00 | 0.00 | 0.00 | 32 | 1018.8 |
| 20260503200141 | 16 | 251 | 4.8 | 6.4 | 0.00 | 0.00 | 0.00 | 30 | 1019.1 |
| 20260503195638 | 17 | 50 | 1.6 | 6.4 | 0.00 | 0.00 | 0.00 | 28 | 1019.1 |
| 20260503195135 | 16 | 152 | 4.8 | 6.4 | 0.00 | 0.00 | 0.00 | 30 | 1019.3 |
| 20260503194632 | 16 | 200 | 6.4 | 11.3 | 0.00 | 0.00 | 0.00 | 29 | 1019.4 |
| 20260503194127 | 16 | 199 | 3.2 | 9.7 | 0.00 | 0.00 | 0.00 | 31 | 1019.4 |
| 20260503193625 | 16 | 268 | 3.2 | 6.4 | 0.00 | 0.00 | 0.00 | 30 | 1019.7 |
| 20260503193120 | 16 | 335 | 1.6 | 4.8 | 0.00 | 0.00 | 0.00 | 31 | 1019.7 |
| 20260503192616 | 16 | 112 | 3.2 | 9.7 | 0.00 | 0.00 | 0.00 | 29 | 1019.7 |
| 20260503192112 | 16 | 289 | 0.0 | 3.2 | 0.00 | 0.00 | 0.00 | 30 | 1019.9 |
| 20260503191609 | 16 | 323 | 3.2 | 6.4 | 0.00 | 0.00 | 0.00 | 39 | 1019.9 |
| 20260503191106 | 16 | 108 | 4.8 | 6.4 | 0.00 | 0.00 | 0.00 | 31 | 1019.8 |
| 20260503190603 | 16 | 179 | 1.6 | 9.7 | 0.00 | 0.00 | 0.00 | 34 | 1020.3 |
| 20260503190100 | 16 | 213 | 4.8 | 4.8 | 0.00 | 0.00 | 0.00 | 33 | 1020.1 |
| 20260503185556 | 15 | 193 | 6.4 | 9.7 | 0.00 | 0.00 | 0.00 | 36 | 1020.5 |
| 20260503185056 | 15 | 249 | 3.2 | 4.8 | 0.00 | 0.00 | 0.00 | 35 | 1020.5 |
| 20260503184552 | 16 | 72 | 1.6 | 6.4 | 0.00 | 0.00 | 0.00 | 42 | 1020.4 |
| 20260503184049 | 15 | 182 | 6.4 | 9.7 | 0.00 | 0.00 | 0.00 | 33 | 1020.6 |
| 20260503183545 | 15 | 248 | 3.2 | 4.8 | 0.00 | 0.00 | 0.00 | 38 | 1020.5 |
| 20260503183043 | 15 | 256 | 0.0 | 4.8 | 0.00 | 0.00 | 0.00 | 35 | 1020.6 |
| 20260503182541 | 15 | 194 | 0.0 | 3.2 | 0.00 | 0.00 | 0.00 | 34 | 1020.5 |
| 20260503182038 | 15 | 233 | 4.8 | 9.7 | 0.00 | 0.00 | 0.00 | 34 | 1020.8 |
| 20260503181530 | 15 | 216 | 4.8 | 9.7 | 0.00 | 0.00 | 0.00 | 32 | 1021.0 |
| 20260503181026 | 15 | 287 | 3.2 | 9.7 | 0.00 | 0.00 | 0.00 | 39 | 1020.8 |
| 20260503180524 | 15 | 87 | 1.6 | 4.8 | 0.00 | 0.00 | 0.00 | 33 | 1020.8 |
| 20260503180021 | 15 | 294 | 3.2 | 6.4 | 0.00 | 0.00 | 0.00 | 45 | 1020.7 |
| 20260503175518 | 14 | 205 | 3.2 | 9.7 | 0.00 | 0.00 | 0.00 | 42 | 1020.7 |
| 20260503175015 | 15 | 20 | 0.0 | 3.2 | 0.00 | 0.00 | 0.00 | 36 | 1020.7 |
| 20260503174513 | 14 | 326 | 0.0 | 6.4 | 0.00 | 0.00 | 0.00 | 34 | 1021.1 |
| 20260503174008 | 15 | 294 | 3.2 | 9.7 | 0.00 | 0.00 | 0.00 | 35 | 1020.8 |
| 20260503173503 | 14 | 239 | 3.2 | 4.8 | 0.00 | 0.00 | 0.00 | 34 | 1021.2 |
| 20260503173000 | 13 | 204 | 1.6 | 9.7 | 0.00 | 0.00 | 0.00 | 33 | 1021.3 |
| 20260503172458 | 14 | 256 | 6.4 | 9.7 | 0.00 | 0.00 | 0.00 | 35 | 1021.2 |
| 20260503171954 | 13 | 233 | 3.2 | 6.4 | 0.00 | 0.00 | 0.00 | 39 | 1021.5 |
| 20260503171451 | 13 | 36 | 1.6 | 6.4 | 0.00 | 0.00 | 0.00 | 40 | 1021.7 |
| 20260503170948 | 13 | 267 | 3.2 | 6.4 | 0.00 | 0.00 | 0.00 | 35 | 1021.6 |
| 20260503170444 | 14 | 258 | 4.8 | 4.8 | 0.00 | 0.00 | 0.00 | 40 | 1021.6 |
| 20260503150836 | 10 | 186 | 3.2 | 4.8 | 0.00 | 0.00 | 0.00 | 43 | 1022.8 |
| 20260503150332 | 11 | 161 | 4.8 | 6.4 | 0.00 | 0.00 | 0.00 | 42 | 1022.9 |
| 20260503140257 | 8 | 81 | 1.6 | 3.2 | 0.00 | 0.00 | 0.00 | 64 | 1023.2 |
| 20260503131227 | 3 | 41 | 1.6 | 3.2 | 0.00 | 0.00 | 0.00 | 93 | 1023.1 |
| 20260503130724 | 3 | 41 | 1.6 | 3.2 | 0.00 | 0.00 | 0.00 | 94 | 1023.4 |
| 20260503130221 | 2 | 41 | 1.6 | 3.2 | 0.00 | 0.00 | 0.00 | 95 | 1023.2 |
| 20260503120147 | 1 | 41 | 0.0 | 0.0 | 0.00 | 0.00 | 0.00 | 98 | 1022.9 |
| 20260503110615 | 0 | 41 | 0.0 | 0.0 | 0.00 | 0.00 | 0.00 | 99 | 1022.1 |
| 20260503110112 | 0 | 41 | 0.0 | 0.0 | 0.00 | 0.00 | 0.00 | 99 | 1022.1 |
| 20260503090501 | 1 | 41 | 0.0 | 0.0 | 0.00 | 0.00 | 0.00 | 99 | 1021.3 |
| 20260503081428 | 1 | 41 | 0.0 | 0.0 | 0.00 | 0.00 | 0.00 | 98 | 1020.6 |
| 20260503080925 | 1 | 41 | 0.0 | 0.0 | 0.00 | 0.00 | 0.00 | 98 | 1020.5 |
| 20260503080421 | 1 | 41 | 0.0 | 0.0 | 0.00 | 0.00 | 0.00 | 98 | 1020.6 |
| 20260503072858 | 2 | 41 | 0.0 | 0.0 | 0.00 | 0.00 | 0.00 | 97 | 1020.4 |